Location: Santa Cristina
(46.5667°N, 11.7167°E)
Time: 18:14:09
(UTC+00:00)

Cosmos 2369 Rocket - Pass Details

Date: 21 April 2021
Orbit: 828 x 853 km, 71.0° (Epoch: 12 May)

Event Time Altitude Azimuth Distance (km) Brightness Sun altitude
Exits shadow 01:52:37 11° 156° (SSE) 2,351 4.3 -21.4°
Maximum altitude 01:56:54 26° 103° (ESE) 1,575 3.9 -20.9°
Drops below altitude 10° 02:01:28 10° 48° (NE) 2,450 5.8 -20.3°
Sets 02:04:16 0° 36° (NE) 3,393 6.9 -20.0°
